Regional Weather Roundup
Issued by NWS

Home | Current Version | Previous Version | Graphics & Text | Print | Product List | Glossary On
Versions: 1 2 3 4 5 6 7 8 9 10 11 12 13 14 15 16 17 18 19 20 21 22 23 24 25 26 27 28 29 30 31 32 33 34 35 36 37 38 39 40 41 42 43 44 45 46 47 48 49 50
571
ASUS45 KABQ 220610
RWRNM
NEW MEXICO REGIONAL WEATHER ROUNDUP
NATIONAL WEATHER SERVICE ALBUQUERQUE NM
1200 AM MDT FRI MAY 22 2015

NOTE: "FAIR" MEANS FEW OR NO CLOUDS BELOW 12,000 FEET AGL WITH NO
       SIGNIFICANT WEATHER OR OBSTRUCTIONS TO VISION.

      THIS PRODUCT IS RELEASED AS TWO VERSIONS.  ONE VERSION NEAR
      THE TOP OF THE HOUR CONTAINING PRELIMINARY DATA FROM ALBUQUERQUE
      AND OTHER STATIONS.  A FINAL VERSION WITH ADDITIONAL DATA IS
      ISSUED ABOUT 10 MINUTES AFTER THE HOUR.

NMZ501-503-504-510>518-220700-
NORTHWEST PLATEAU/NORTHCENTRAL MOUNTAINS

CITY           SKY/WX    TMP DP  RH WIND       PRES   REMARKS
FARMINGTON     CLEAR     54  41  61 E9        29.99F
6HR MIN TEMP:  54; 6HR MAX TEMP:  65;

LOS ALAMOS     RAIN      42  42 100 SW13      30.19R
SANTA FE       MOCLDY    45  40  82 S15       30.13R
6HR MIN TEMP:  44; 6HR MAX TEMP:  50;

TAOS           CLOUDY    45  36  70 SW8       30.13R
ANGEL FIRE     CLOUDY    36  33  91 W3        30.17F

$$
NMZ402-403-502-505>509-220700-
WESTCENTRAL MOUNTAINS/SOUTHWEST MOUNTAINS

CITY           SKY/WX    TMP DP  RH WIND       PRES   REMARKS
GALLUP         MOCLDY    53  26  35 S9        30.04R
6HR MIN TEMP:  53; 6HR MAX TEMP:  68; 6HR PCP: TRACE;

GRANTS         MOCLDY    45  43  93 S12       30.10F
SILVER CITY      N/A     46  19  34 NW9       30.08S

$$
NMZ407-409-411-412-220700-
SOUTHERN DESERTS

CITY           SKY/WX    TMP DP  RH WIND       PRES   REMARKS
LORDSBURG      FAIR      59  21  23 SW8       30.01R
DEMING         CLEAR     57  23  26 SW6       30.01F
6HR MIN TEMP:  56; 6HR MAX TEMP:  75;

LAS CRUCES     CLEAR     57  51  78 SE7       30.04S
HOLLOMAN AFB   CLEAR     54  53  95 NW5       30.04S
ALAMOGORDO     CLEAR     54  50  87 N7        30.06S
T OR C         CLEAR     52  49  89 NE8       30.04R
6HR MIN TEMP:  52; 6HR MAX TEMP:  69; 6HR PCP:  0.29;


$$
NMZ519>523-220700-
CENTRAL VALLEYS/CENTRAL HIGHLANDS

CITY           SKY/WX    TMP DP  RH WIND       PRES   REMARKS
ALBUQUERQUE    MOCLDY    52  45  77 NE9       30.11R
6HR MIN TEMP:  50; 6HR MAX TEMP:  54; 6HR PCP:  0.07;

DOUBLE EAGLE   CLOUDY    48  45  90 N12       30.12S
MORIARTY ARPT  CLOUDY    43  40  88 SE10G16   30.16S
6HR MIN TEMP:  42; 6HR MAX TEMP:  46; 6HR PCP:  0.20;

CLINES CORNERS FOG       40  39  97 SE15      30.14R VSB 1   WCI  32
6HR MIN TEMP:  40; 6HR MAX TEMP:  42; 6HR PCP:  0.57;

BELEN          FAIR      49  43  80 S9        30.09R
6HR MIN TEMP:  49; 6HR MAX TEMP:  58;

SOCORRO        FAIR      49  46  90 SW5       30.07S
6HR MIN TEMP:  49; 6HR MAX TEMP:  57;


$$
NMZ524>526-539-540-220700-
SOUTHCENTRAL MOUNTAINS

CITY           SKY/WX    TMP DP  RH WIND       PRES   REMARKS
RUIDOSO        CLOUDY    41  41 100 SE7       30.20S

$$
NMZ527>531-220700-
NORTHEAST HIGHLANDS/NORTHEAST PLAINS

CITY           SKY/WX    TMP DP  RH WIND       PRES   REMARKS
LAS VEGAS      CLOUDY    40  38  93 CALM      30.16F
6HR MIN TEMP:  40; 6HR MAX TEMP:  42; 6HR PCP:  0.56;

RATON          NOT AVBL
CLAYTON        LGT RAIN  47  45  93 S13       30.19R FOG
6HR MIN TEMP:  47; 6HR MAX TEMP:  47; 6HR PCP:  0.16;


$$
NMZ532>537-220700-
EASTCENTRAL PLAINS

CITY           SKY/WX    TMP DP  RH WIND       PRES   REMARKS
CANNON AFB     RAIN      48  48 100 E9        30.16F FOG
6HR MIN TEMP:  47; 6HR MAX TEMP:  49; 6HR PCP:  0.39;

CLOVIS AIRPORT CLOUDY    48  46  93 NW5       30.19F

$$
NMZ028-029-538-220700-
SOUTHEAST PLAINS

CITY           SKY/WX    TMP DP  RH WIND       PRES   REMARKS
ROSWELL        CLOUDY    52  49  89 CALM      30.14S
6HR MIN TEMP:  51; 6HR MAX TEMP:  52; 6HR PCP:  0.18;

ARTESIA        CLOUDY    52  52 100 E3        30.15R
CARLSBAD       CLOUDY    54  52  93 E3        30.12S
6HR MIN TEMP:  53; 6HR MAX TEMP:  54; 6HR PCP:  0.22;

HOBBS          LGT RAIN  50  50 100 CALM      30.19S


$$



USA.gov is the U.S. government's official web portal to all federal, state and local government web resources and services.